GFSSW_2pvu_pres_000.txt.gz
Presure
122 130 129 118 95 97 95 130 99 127 100 119 115 139 122 117 128 130 131 141 154 160 170 198 179 181 206 260 144 141 149 140 141 184 141 154 168 175 174 167 164 163 166 170 170
127 117 129 119 115 124 137 97 127 98 96 115 124 127 126 121 121 128 124 137 140 137 125 124 190 222 164 273 263 189 160 155 135 134 139 132 135 134 139 143 160 240 170 190 184
93 124 122 128 128 110 119 95 116 124 96 102 115 122 117 119 125 127 127 129 142 135 135 141 160 181 209 203 275 133 220 194 166 168 152 150 149 126 129 136 128 147 126 115 110
108 126 123 123 124 127 132 141 111 141 116 111 104 107 115 120 118 118 118 131 126 138 140 137 114 150 186 180 258 271 246 177 178 178 162 162 150 153 134 138 108 114 126 101 124
123 110 130 122 121 120 126 92 134 136 102 131 108 106 112 124 124 115 130 116 120 124 121 143 133 139 122 188 179 206 248 248 237 221 216 186 176 161 153 142 162 168 155 177 157
122 121 111 143 132 120 122 125 134 138 118 120 110 113 107 102 106 125 114 112 112 119 133 122 143 132 134 143 170 181 175 200 230 239 229 206 182 176 177 168 173 164 180 164 214
141 144 145 142 136 123 128 125 123 132 124 144 117 135 133 107 105 103 124 122 124 115 129 132 128 100 140 143 139 151 190 182 185 204 235 255 257 247 173 169 227 228 216 206 200
135 131 140 137 129 140 127 126 128 117 126 139 136 93 126 137 108 106 106 124 131 111 108 125 114 130 116 135 110 136 148 177 184 176 178 172 208 214 216 198 184 176 170 178 177
162 143 130 137 141 125 149 121 131 135 115 132 142 139 110 141 116 113 105 105 120 127 122 110 122 132 146 114 137 136 101 136 148 165 160 168 173 171 167 166 162 161 163 158 149
108 105 124 132 126 138 145 131 130 147 133 118 141 136 126 107 117 115 105 103 102 114 125 126 114 105 136 137 129 132 137 129 132 125 155 151 178 136 155 174 173 169 171 167 170
120 142 142 137 138 130 124 118 137 147 143 126 113 141 123 124 129 126 104 107 101 102 106 130 126 128 102 129 135 140 126 127 130 127 134 137 140 187 134 142 150 179 184 182 180
126 118 113 107 123 136 139 148 140 147 134 165 136 137 140 125 124 121 126 116 112 104 123 133 110 129 120 111 108 110 139 131 126 114 128 125 140 137 136 134 131 131 135 141 141
243 155 116 120 116 112 117 209 139 131 150 141 133 148 116 139 124 132 131 138 127 105 113 116 116 138 103 117 124 115 141 130 125 117 111 119 131 133 139 147 132 130 129 128 133
213 230 237 235 214 271 115 114 173 208 158 145 136 143 149 123 154 117 128 140 132 129 134 110 115 107 103 130 124 130 111 138 129 132 119 109 126 126 125 127 130 125 127 125 128
191 229 207 227 239 236 242 254 112 117 126 210 187 139 140 140 129 127 126 126 131 97 128 131 104 130 103 116 118 133 119 132 117 135 125 126 130 150 126 111 113 114 111 115 111
181 216 182 232 236 228 207 251 257 243 122 124 149 186 140 145 133 159 118 150 128 144 122 126 133 113 129 114 104 103 112 130 136 129 121 131 117 121 136 128 125 130 114 108 127
199 196 189 198 232 224 233 215 187 228 255 226 133 158 148 145 147 112 159 133 152 132 143 128 115 134 136 145 143 108 111 117 139 120 130 138 139 145 134 112 132 133 139 124 118
179 152 195 198 227 214 242 229 241 245 89 288 127 74 151 220 134 148 145 140 145 154 132 144 145 147 143 114 97 153 113 126 117 145 158 126 134 145 143 142 100 114 130 143 130
211 191 158 205 213 173 219 240 241 219 199 276 294 198 120 119 159 170 145 152 137 151 154 149 127 141 124 128 160 95 140 110 144 143 127 129 114 141 118 135 124 138 93 146 125
214 162 217 226 193 206 186 206 226 241 242 282 274 253 250 183 131 213 151 128 153 136 143 150 145 148 129 154 124 124 127 141 123 131 113 136 139 150 159 140 139 143 151 140 135
173 211 194 209 187 210 226 212 120 215 241 261 273 291 283 287 139 131 217 155 132 157 134 137 153 144 164 122 138 155 125 124 129 142 149 121 112 142 147 116 137 117 131 154 137
212 222 220 202 199 214 202 170 240 207 259 264 265 291 119 265 195 121 125 146 146 133 136 136 134 151 147 133 157 152 161 137 125 126 143 120 119 150 130 147 138 129 115 128 120
231 194 211 227 222 243 209 224 163 223 196 228 241 174 284 249 281 199 117 125 135 159 141 143 131 134 146 151 125 141 154 146 129 131 129 135 131 136 142 150 131 133 134 129 122
219 187 220 227 241 227 216 216 232 227 225 211 233 240 225 283 251 290 288 128 124 124 157 160 162 161 138 131 124 137 152 154 139 149 155 123 131 136 132 142 128 122 128 132 145
239 249 220 219 209 224 238 205 233 228 236 189 238 223 240 219 238 231 245 140 136 119 151 163 132 136 151 141 130 138 137 154 156 148 140 133 139 131 154 134 124 149 141 118 125
247 255 256 254 257 232 239 227 224 256 246 232 239 200 213 105 288 266 276 181 197 245 119 154 152 126 132 130 138 132 141 118 118 107 148 137 128 129 144 132 132 132 132 134 136
352 324 323 305 286 284 247 252 227 221 233 242 242 186 248 240 265 187 272 357 131 197 162 123 215 156 130 140 121 160 140 148 167 139 143 118 144 127 133 126 126 125 140 116 117

GFSSW_2pvu_pres_003.txt.gz
Presure
123 122 120 119 110 100 139 123 110 104 102 110 131 124 127 141 128 137 136 142 150 160 173 186 226 200 179 151 142 149 152 118 123 125 165 156 150 150 151 157 160 157 156 157 157
124 121 128 118 118 120 99 106 122 107 97 107 107 122 123 126 127 128 134 136 140 136 146 147 187 210 214 280 264 178 146 134 142 159 184 187 178 152 166 157 151 159 170 233 206
120 123 124 124 133 132 112 137 125 123 133 101 122 106 118 124 128 132 122 98 126 135 138 142 157 193 189 249 131 152 215 180 194 150 125 126 133 135 136 134 134 127 149 128 131
87 117 90 128 119 121 116 110 120 108 104 130 108 113 114 117 123 124 129 131 128 126 141 135 132 148 184 178 244 271 234 199 192 188 192 174 149 146 128 124 125 118 112 116 137
120 95 107 110 127 124 129 115 137 129 127 84 111 108 107 121 116 118 122 123 131 130 138 118 91 156 140 179 177 209 252 231 223 210 204 192 181 157 155 154 155 124 155 156 156
123 133 127 118 109 131 120 125 128 143 105 120 97 115 106 107 120 111 127 125 118 128 121 142 137 120 140 148 173 177 193 250 247 228 210 207 191 183 165 158 151 175 167 169 176
118 140 131 122 121 118 129 138 120 129 134 120 141 84 91 97 108 124 102 119 123 125 130 120 134 141 140 133 148 170 181 182 213 237 253 232 201 178 189 185 176 172 145 214 204
155 124 122 149 127 121 153 153 129 124 130 129 127 143 130 117 101 119 105 127 126 117 119 116 132 126 120 140 144 142 166 132 177 183 203 159 235 246 235 221 202 193 128 198 195
152 157 151 161 141 149 118 138 140 119 123 134 129 137 123 140 107 144 119 107 137 140 123 109 115 119 123 130 126 128 140 151 170 180 174 179 165 160 158 159 157 157 156 154 155
118 134 144 173 161 138 126 134 125 123 118 124 135 120 141 131 123 106 132 108 108 119 133 123 111 113 138 134 130 128 121 127 130 155 155 140 167 170 167 165 167 170 171 164 164
122 119 109 128 138 127 132 148 155 131 119 115 129 132 136 143 124 115 92 114 102 109 107 131 131 120 103 104 146 125 135 131 117 134 141 161 134 134 143 175 165 171 180 183 177
143 176 150 203 201 209 138 119 134 129 129 149 153 126 132 141 123 123 130 106 119 104 103 109 113 131 126 109 114 129 140 147 133 132 144 139 142 133 135 128 133 141 144 146 148
178 247 228 249 221 122 168 129 122 160 128 131 142 152 154 130 133 119 128 142 124 128 113 106 107 147 119 131 116 113 114 140 134 134 117 121 138 142 138 135 133 129 126 127 128
209 226 226 233 239 263 224 111 116 124 122 152 148 138 148 147 137 145 118 126 133 129 143 117 113 118 108 125 122 116 127 129 124 130 138 134 109 127 134 130 139 138 130 126 122
215 209 183 228 196 231 181 258 123 110 117 121 129 261 136 149 156 141 116 113 122 121 125 141 123 112 122 117 95 104 124 128 130 138 121 127 144 130 137 132 116 136 132 116 115
160 201 179 214 217 229 191 238 232 269 233 168 121 122 201 185 140 152 143 134 120 121 122 127 129 126 121 122 116 118 145 111 136 129 132 139 123 150 119 122 138 129 132 118 122
208 175 198 178 218 216 212 201 225 229 152 254 245 228 121 140 261 164 135 138 140 117 133 111 118 127 96 101 131 114 134 109 104 109 132 130 130 135 129 128 127 138 121 132 143
177 151 189 207 193 201 228 168 189 230 238 241 250 178 250 229 124 172 216 145 143 138 112 118 125 116 126 130 109 117 143 124 137 115 121 114 119 125 127 151 135 123 110 129 132
207 181 171 214 171 193 219 141 174 162 203 167 237 162 112 281 261 129 128 111 154 139 139 140 145 133 120 129 132 132 109 139 150 139 127 125 151 136 138 133 150 143 119 127 134
195 203 201 199 165 171 202 192 140 146 157 223 218 189 257 211 244 275 199 130 211 184 138 145 142 141 145 128 136 130 128 128 132 142 130 123 141 123 152 122 116 134 130 136 130
186 189 209 188 193 220 197 223 209 204 214 234 220 234 241 258 261 251 294 178 142 223 193 141 140 148 156 165 148 127 126 128 128 133 132 137 147 132 142 122 144 132 143 138 141
199 210 204 221 225 212 209 233 219 201 195 224 231 219 187 263 270 239 272 267 134 140 110 191 146 143 142 158 89 150 162 152 127 134 131 126 133 143 152 140 133 132 139 155 127
220 225 207 228 237 215 235 221 237 218 206 217 198 207 206 233 221 266 257 158 265 142 251 222 174 146 147 147 148 167 125 99 136 149 130 130 133 137 133 142 142 138 126 150 138
268 216 240 226 239 228 233 239 238 236 227 224 233 226 230 191 251 259 251 267 234 133 206 155 218 136 148 143 133 113 94 150 151 141 147 133 133 140 151 140 154 144 127 136 155
210 227 248 248 250 222 242 240 222 236 242 227 222 233 180 224 235 222 244 139 242 113 132 130 141 216 136 140 151 141 151 140 157 131 143 111 144 154 150 142 135 142 137 138 143
268 278 285 261 268 230 241 238 246 243 234 239 229 242 239 239 246 245 228 248 281 255 272 123 121 84 211 137 145 146 134 138 137 156 153 155 139 134 135 147 159 154 148 146 133
412 413 394 405 331 259 245 259 263 242 230 251 248 228 223 231 231 240 231 240 262 271 232 117 126 131 126 211 140 146 143 135 135 130 133 144 150 139 147 144 144 143 130 136 138

GFSSW_2pvu_pres_006.txt.gz
Presure
135 121 126 123 113 108 145 131 125 122 104 123 116 126 124 128 142 128 136 143 159 160 176 183 207 216 149 157 176 136 134 105 97 122 105 114 169 186 174 146 136 133 136 140 157
118 124 120 125 127 120 108 140 110 119 114 104 110 115 126 125 128 132 119 138 134 125 153 163 186 192 259 237 139 142 149 154 170 179 174 167 170 132 134 138 144 158 168 161 172
98 121 121 127 123 123 121 131 136 121 120 113 104 107 117 128 134 126 79 136 132 140 135 129 154 177 189 231 265 249 213 133 132 141 168 178 173 176 165 165 172 160 148 143 112
111 96 116 123 123 122 131 135 109 137 128 132 119 110 99 115 127 132 129 129 135 143 141 135 143 145 163 188 130 263 241 230 174 180 133 132 125 127 153 139 136 137 125 119 121
125 90 120 110 111 124 115 128 116 113 122 127 124 121 107 100 125 121 126 134 130 129 110 120 140 152 151 161 190 228 250 240 230 184 196 194 151 136 132 130 124 124 129 117 147
106 142 110 113 100 117 102 116 130 123 107 109 89 120 120 114 108 98 119 124 124 130 128 146 136 134 150 152 160 188 194 231 231 221 223 212 206 181 163 150 157 154 150 168 165
140 147 117 114 118 138 143 119 125 115 126 138 119 138 122 95 108 110 97 120 129 117 131 132 134 139 137 150 151 171 180 189 238 227 209 208 201 215 187 197 189 178 174 241 227
120 120 143 139 127 115 130 121 118 129 125 127 140 146 122 124 114 124 109 101 123 122 119 128 120 128 124 126 121 142 171 176 180 234 254 220 199 189 194 191 215 200 186 188 188
169 159 154 165 141 119 129 127 123 123 123 133 127 137 142 123 126 123 128 116 104 125 124 118 123 133 131 128 137 121 142 144 177 174 175 198 221 209 188 185 171 168 168 165 164
106 95 124 132 177 123 138 135 126 125 121 160 150 118 133 138 133 123 128 142 115 108 123 129 120 114 120 133 118 121 129 133 143 175 172 168 167 169 168 169 163 156 152 157 156
213 117 110 121 149 99 140 111 198 192 133 144 142 126 129 133 141 133 124 127 130 117 109 136 131 122 109 96 138 127 132 131 125 121 160 135 143 181 177 175 170 170 167 174 176
193 187 234 210 127 217 130 127 197 166 162 190 120 142 130 129 136 143 135 126 139 131 117 109 104 133 131 120 112 143 135 128 131 128 133 161 133 130 156 170 175 174 173 173 181
171 193 194 197 181 217 188 112 124 113 220 136 133 136 130 130 124 133 143 122 127 137 130 118 107 112 121 132 130 118 117 136 128 124 132 122 144 133 141 133 128 126 129 127 138
202 188 166 209 186 184 189 231 236 111 236 115 131 141 138 126 131 122 128 148 123 128 120 136 114 119 110 113 136 131 118 112 131 131 127 129 104 144 144 140 141 138 136 133 119
177 180 176 159 192 184 154 219 185 244 140 261 252 121 105 133 118 133 144 119 150 128 135 133 133 121 123 126 116 156 135 116 125 126 127 123 136 139 137 131 140 144 130 133 140
174 175 159 183 180 206 160 183 215 198 196 235 206 120 242 134 115 134 127 164 136 149 124 136 122 130 134 135 127 108 106 121 131 130 132 124 135 109 109 120 120 121 140 130 135
174 175 179 184 168 194 193 190 194 171 207 211 186 209 171 115 151 147 135 144 159 139 149 126 119 132 125 96 138 157 125 130 124 122 134 113 126 130 140 133 120 134 126 123 143
168 179 175 161 185 155 204 188 170 152 205 204 149 183 186 268 122 158 122 156 131 152 141 152 135 124 129 123 105 103 139 132 153 158 115 114 113 120 131 128 144 130 125 120 128
166 177 171 184 161 183 178 186 162 205 192 201 200 217 183 256 247 264 127 121 125 193 146 139 143 145 126 121 90 100 138 136 135 136 133 114 140 126 114 124 126 132 131 132 114
173 164 177 171 168 174 179 182 187 190 190 189 207 216 213 214 221 246 258 243 154 119 265 181 141 144 148 133 100 120 127 100 114 129 129 156 143 135 144 154 123 137 143 125 149
171 168 169 160 170 181 188 186 188 201 202 209 158 145 197 172 173 198 239 247 238 229 124 258 155 141 145 147 148 127 125 114 121 124 131 136 157 136 130 155 162 151 157 146 139
160 157 190 182 197 190 194 196 203 148 89 210 169 183 206 209 229 227 250 180 241 272 253 124 261 153 155 142 150 162 126 127 119 122 127 129 136 146 134 146 147 144 125 139 140
165 180 193 187 192 192 182 222 81 217 199 205 219 138 204 226 232 237 241 221 243 248 238 264 128 135 169 150 143 155 138 137 128 92 128 127 127 133 131 130 136 126 152 155 112
188 194 200 195 219 225 229 227 228 228 233 209 209 224 218 162 202 216 241 234 233 247 243 265 261 213 136 191 135 114 148 148 145 147 142 139 146 136 139 143 141 142 134 116 138
293 261 260 222 221 240 225 226 227 230 241 222 253 98 219 228 213 233 246 214 242 243 238 267 267 283 290 136 191 93 88 148 136 135 151 157 146 136 136 177 156 137 133 137 120
321 484 389 455 296 308 289 239 225 233 246 234 229 245 237 227 228 217 247 230 208 228 254 247 203 281 287 148 78 203 202 148 148 152 152 67 139 125 134 173 155 135 163 154 150
480 435 453 434 419 408 399 293 239 254 227 231 228 246 221 229 212 173 230 240 201 226 230 183 264 243 277 280 199 156 151 187 149 145 146 147 159 135 124 163 156 152 150 150 152

GFSSW_2pvu_pres_009.txt.gz
Presure
125 123 127 128 122 113 119 110 120 128 119 107 115 124 126 132 137 135 146 157 149 162 182 167 182 175 180 162 155 146 137 139 133 103 117 147 124 118 122 155 156 143 134 134 143
127 124 130 125 126 123 124 133 135 111 101 124 106 105 127 124 131 136 140 127 135 154 161 169 183 172 210 170 177 186 170 160 141 152 113 148 150 139 152 156 157 168 155 166 154
90 128 122 115 125 126 119 117 131 127 109 125 117 115 112 125 127 132 137 124 135 139 150 151 160 170 193 188 265 139 144 151 154 174 173 172 175 174 160 161 178 181 145 157 151
127 111 119 124 122 124 123 125 121 146 138 120 127 110 129 107 126 132 128 141 142 136 140 126 151 150 162 190 184 262 249 145 138 134 133 143 165 174 178 175 163 160 167 126 114
129 137 84 83 102 112 112 124 109 129 135 135 124 128 120 129 104 121 124 133 136 143 139 126 143 155 147 157 182 176 186 242 237 226 178 180 143 134 153 163 174 135 124 125 115
116 140 122 114 116 109 93 109 108 126 129 121 132 117 113 125 121 104 110 119 129 134 146 140 120 108 152 150 154 185 190 239 236 232 230 205 192 190 140 141 138 126 130 132 144
144 117 118 141 117 129 137 120 109 116 126 127 125 120 115 128 118 117 110 116 119 125 130 129 144 141 143 155 149 161 180 189 243 231 220 220 221 238 199 144 142 146 149 159 159
147 125 156 154 125 119 118 114 118 116 115 119 124 122 140 132 131 125 123 110 99 119 128 128 128 143 141 145 136 149 162 176 182 234 234 216 196 181 178 197 195 193 218 207 213
131 167 168 169 148 117 171 118 122 119 127 119 118 121 128 145 136 110 132 124 115 102 119 126 120 128 128 132 123 135 148 161 174 182 225 235 205 187 185 205 205 194 194 190 182
160 103 156 181 166 201 168 123 154 170 120 130 117 133 114 121 136 141 109 131 123 127 110 119 130 122 122 134 123 121 145 145 122 180 175 167 186 219 203 181 187 179 168 163 162
214 195 204 108 106 101 99 201 216 221 125 135 160 124 119 124 126 134 142 122 133 126 124 108 115 134 131 113 128 142 133 144 137 159 181 171 168 164 167 166 172 169 163 158 153
193 192 188 176 189 211 198 181 211 211 99 118 115 125 156 125 178 130 126 138 124 138 132 129 114 106 128 132 125 116 140 137 128 142 134 141 123 175 180 179 179 181 180 179 175
182 161 140 179 173 192 179 200 201 148 115 226 166 225 120 123 124 178 131 119 120 139 136 134 130 121 136 116 133 132 123 142 136 131 131 155 149 131 150 172 179 177 174 173 168
178 166 183 191 176 188 197 196 201 207 187 112 144 229 227 269 127 163 143 132 124 135 141 112 140 128 124 113 114 130 135 130 111 137 131 134 134 118 123 137 137 132 130 129 139
172 174 176 174 187 185 187 189 197 208 201 174 187 215 188 242 132 282 134 125 133 145 136 137 141 139 149 144 140 115 117 134 133 141 125 125 129 143 131 140 139 132 125 124 132
164 168 173 172 172 173 178 180 196 182 192 211 165 175 189 142 189 185 132 133 247 130 123 123 136 142 123 125 138 118 122 129 124 128 126 133 138 122 126 134 133 141 116 131 135
161 163 164 167 175 166 180 179 189 165 186 177 195 181 176 191 189 153 117 112 191 130 133 138 138 132 133 124 133 151 123 127 126 136 131 142 127 124 135 132 131 126 116 138 111
168 163 169 173 163 173 183 183 191 150 186 193 201 184 193 186 220 232 251 115 198 110 141 126 137 137 156 127 123 135 146 156 121 118 135 127 124 143 123 131 135 138 140 133 125
162 164 162 168 179 175 171 183 163 94 178 197 188 177 180 206 195 214 228 135 136 133 117 128 153 136 145 158 131 130 117 129 148 109 107 132 129 131 113 119 125 125 130 126 129
156 158 165 155 174 177 182 175 180 174 191 171 172 137 173 197 206 196 209 228 159 187 170 136 131 142 141 149 147 135 103 122 114 134 125 138 112 146 136 123 133 116 124 130 133
158 166 169 170 174 178 176 178 163 171 177 193 195 192 148 188 176 212 210 218 229 240 161 126 202 132 137 149 148 112 139 121 114 102 122 151 142 170 142 123 142 134 135 139 137
169 169 171 153 177 185 193 184 175 182 188 194 190 200 203 199 185 185 212 210 219 192 229 133 262 139 139 185 138 147 93 77 89 99 132 126 127 153 131 138 118 144 127 150 133
157 178 163 183 185 192 190 185 196 196 196 194 207 208 182 199 202 211 197 211 234 197 225 228 156 260 127 235 136 181 146 151 108 118 122 117 121 124 120 123 136 135 134 140 151
190 188 193 200 201 150 198 206 204 210 204 212 215 208 202 200 204 207 216 227 227 224 189 226 225 257 248 129 130 176 151 147 127 144 130 128 112 135 140 128 128 129 128 107 160
214 217 218 216 220 223 224 224 220 215 218 219 104 183 183 212 205 208 181 223 224 231 178 212 210 223 238 223 139 163 210 150 143 127 149 138 132 105 123 126 134 134 132 146 136
266 254 279 255 249 231 240 251 246 244 246 235 247 224 228 223 214 211 213 217 237 235 207 220 232 251 229 257 82 280 137 133 154 147 138 134 142 150 146 134 135 134 139 142 96
454 451 454 464 466 314 459 305 321 242 252 238 213 249 236 233 226 222 229 239 240 239 228 238 228 231 234 225 246 254 264 96 137 187 197 145 120 140 140 146 149 148 136 150 130

GFSSW_2pvu_pres_012.txt.gz
Presure
103 116 125 127 126 124 112 139 112 101 126 123 111 109 120 127 135 138 155 156 149 169 175 192 182 156 134 132 136 147 145 133 127 134 135 143 153 156 155 122 129 133 134 151 138
125 118 124 123 122 127 126 123 133 131 112 124 123 115 112 118 127 131 137 139 154 157 157 171 179 190 205 184 147 142 146 144 140 141 123 118 148 148 148 146 147 141 141 146 155
114 112 110 129 128 115 127 126 121 124 125 126 98 124 125 111 124 127 133 131 133 147 156 156 161 169 178 189 207 258 186 182 180 148 152 153 154 152 151 155 159 160 160 172 184
85 112 114 111 108 129 120 117 123 127 122 129 118 116 125 124 112 129 131 126 136 137 149 148 141 153 158 168 192 177 255 151 139 140 165 156 173 172 172 173 172 171 169 159 155
111 115 130 110 83 90 98 122 113 105 117 125 132 130 99 132 129 115 112 133 132 139 141 142 126 151 148 152 162 192 272 261 243 242 197 162 169 150 139 140 170 170 208 179 125
133 123 120 132 148 124 122 117 118 90 101 129 122 121 127 129 134 116 121 109 131 132 138 143 109 97 151 148 146 165 186 221 238 233 231 220 175 181 184 151 147 135 133 121 133
130 144 139 139 111 123 139 120 124 120 119 116 109 127 139 128 131 135 117 122 104 119 130 132 142 137 135 143 151 151 168 180 200 235 227 223 228 166 172 184 196 142 140 138 143
124 166 159 146 146 147 124 115 140 156 117 121 113 117 115 141 114 122 124 133 112 108 118 122 127 131 146 145 143 149 151 174 179 204 241 222 213 211 209 198 175 155 160 149 147
142 124 118 131 133 142 157 167 136 132 123 123 120 122 123 124 122 93 134 137 129 122 109 116 133 127 130 141 144 138 144 147 174 173 238 241 201 194 194 191 200 177 183 214 196
130 130 118 116 176 161 193 220 202 197 129 119 112 116 118 124 124 127 115 139 140 124 133 124 113 126 119 129 126 123 139 133 151 183 171 221 190 198 191 191 199 206 202 189 180
193 192 196 197 196 205 208 110 202 97 213 217 210 118 119 127 127 130 135 124 124 151 128 133 123 119 127 124 129 136 115 144 145 117 172 149 185 152 194 198 175 177 172 176 169
189 190 185 187 184 188 188 186 192 185 103 196 202 223 185 121 118 138 135 129 140 137 151 128 131 132 110 122 131 113 139 138 139 143 121 145 140 171 166 164 159 162 158 159 165
189 184 182 188 147 154 187 181 171 198 192 201 185 185 211 222 216 123 122 131 131 132 135 154 140 127 131 127 129 131 144 125 139 145 138 155 139 133 176 173 169 168 169 176 169
184 181 182 181 176 172 186 177 189 171 182 202 193 188 216 189 210 157 117 121 123 140 119 136 147 157 126 131 144 119 125 136 148 125 137 139 155 153 141 142 178 178 176 176 176
173 173 179 177 164 161 172 178 182 197 205 161 187 183 191 120 181 131 212 209 113 126 124 131 144 135 159 127 135 133 115 128 136 146 111 135 138 129 148 129 137 159 135 156 142
183 175 170 162 161 159 168 173 178 177 175 179 182 186 196 204 186 116 113 239 241 165 128 129 146 140 129 143 128 132 133 147 119 121 137 136 136 133 126 150 136 141 134 128 125
172 167 165 168 173 172 170 159 152 170 168 179 170 195 193 195 186 211 181 174 118 190 243 141 182 153 143 132 143 132 122 142 111 115 117 139 125 145 147 131 126 153 127 135 141
150 152 148 159 160 161 159 170 175 163 166 172 176 186 188 188 198 206 218 174 175 212 213 114 266 142 137 151 128 147 147 116 141 130 136 124 132 133 133 130 148 138 126 118 121
150 153 150 158 173 174 176 175 165 158 161 171 174 192 183 193 182 174 216 206 199 200 115 139 183 154 133 141 154 127 141 103 141 131 135 131 110 119 119 133 122 134 106 133 141
152 161 163 164 169 167 169 162 165 167 170 174 187 138 180 189 186 195 202 215 183 165 193 224 159 126 114 132 139 144 132 136 119 132 134 139 139 138 127 123 126 142 142 132 128
156 163 166 170 171 171 171 167 169 169 170 171 176 176 175 179 176 182 202 191 184 204 175 221 217 196 134 127 124 141 139 100 130 124 114 132 115 121 151 137 139 119 142 128 120
163 152 175 175 169 172 175 177 178 177 181 173 181 188 187 188 143 175 193 201 186 187 195 171 178 215 197 116 140 269 154 110 121 138 132 122 106 132 154 147 145 137 136 117 140
174 169 133 179 182 183 184 192 187 186 176 177 177 184 188 192 190 173 186 168 189 170 184 210 202 211 226 210 158 163 249 136 147 136 111 140 102 120 113 126 129 98 153 146 142
163 160 181 168 195 195 147 194 193 191 189 189 190 193 198 198 191 197 198 205 202 209 199 209 193 191 172 229 213 200 136 178 123 129 138 144 135 140 105 106 125 122 113 115 134
212 214 214 214 212 209 213 207 198 198 163 152 197 198 201 201 196 203 197 177 203 184 197 171 215 214 82 221 246 248 200 129 136 129 154 149 138 98 108 126 114 108 120 129 142
248 244 251 256 255 255 261 273 270 249 218 217 214 206 207 207 205 207 206 214 193 217 213 218 223 224 224 212 243 249 238 237 242 122 129 146 153 147 146 154 146 137 121 130 120
342 427 431 425 445 456 467 435 400 331 271 262 253 237 239 233 230 223 220 218 221 220 220 221 217 194 234 222 208 262 231 180 241 178 123 100 138 150 144 135 145 150 139 142 138

GFSSW_2pvu_pres_015.txt.gz
Presure
121 114 123 115 120 124 121 128 115 115 114 118 119 115 122 128 135 137 156 149 161 170 135 137 152 132 134 136 136 134 138 132 117 139 135 129 145 152 148 151 152 153 147 143 142
116 121 116 121 123 122 126 129 128 124 149 129 124 113 125 113 122 131 134 140 153 153 163 176 175 141 143 139 134 131 135 147 154 140 125 137 125 129 140 141 146 143 143 130 148
108 107 108 109 117 108 125 126 118 129 121 126 121 126 111 120 121 126 130 133 136 131 155 154 168 175 186 185 190 183 148 141 138 136 120 109 129 139 148 150 149 150 106 157 178
121 122 113 116 113 92 139 117 118 118 126 129 130 131 121 111 127 118 119 133 136 130 147 124 154 158 162 167 179 188 179 260 256 190 187 182 177 155 165 163 163 165 173 179 177
116 131 115 110 118 103 105 107 119 118 125 124 123 124 131 141 118 127 125 118 132 132 140 137 147 138 144 155 157 164 182 212 234 236 242 170 158 144 147 146 139 134 155 177 157
137 138 132 118 117 115 121 110 129 121 96 122 112 119 135 132 151 116 122 130 112 124 132 137 143 139 147 152 152 151 160 180 190 179 243 244 206 180 176 169 170 158 138 134 147
110 159 153 138 128 137 122 142 143 116 120 131 122 126 125 111 130 150 129 112 105 116 130 131 136 139 133 137 146 154 160 167 186 194 258 237 234 218 218 163 177 214 158 141 142
153 159 140 104 107 160 143 168 168 132 142 120 121 102 123 133 139 127 131 134 122 116 119 117 126 135 143 138 133 142 153 154 167 186 245 228 226 229 214 227 173 172 197 179 149
147 123 111 111 132 110 117 152 146 150 164 158 120 120 149 128 129 123 159 124 132 124 126 122 111 122 130 127 145 144 148 153 151 167 181 238 228 220 215 216 219 210 185 172 173
164 120 137 194 195 182 146 136 106 112 132 209 211 200 188 119 118 118 127 137 145 126 124 133 118 124 137 135 129 149 145 139 128 153 166 203 199 205 196 189 189 184 195 193 205
189 188 192 199 190 208 203 200 176 157 205 143 204 205 104 200 185 124 124 129 118 110 127 140 132 137 127 117 120 129 129 122 147 147 119 179 210 209 208 211 201 202 199 183 188
200 197 198 203 198 195 198 189 192 190 193 189 169 142 157 192 192 212 128 124 122 120 130 133 147 137 133 131 123 130 132 132 114 139 146 128 167 176 179 204 178 177 170 143 162
184 184 192 192 191 190 186 181 191 188 179 187 187 177 185 205 182 210 161 176 125 124 137 132 137 145 142 130 135 124 116 120 120 140 146 149 143 133 176 170 170 171 163 146 159
188 182 185 177 185 190 189 182 176 175 186 178 172 185 176 170 180 157 111 194 217 145 135 127 139 136 136 153 131 132 138 130 129 129 139 136 139 147 140 179 175 163 159 158 169
177 180 174 172 170 166 164 182 182 181 160 173 171 175 169 187 174 171 180 185 195 220 259 137 132 133 134 145 155 138 123 133 118 129 108 135 144 152 157 165 144 177 180 185 183
170 169 166 160 169 188 169 175 167 171 166 132 167 168 183 186 182 188 201 179 199 180 189 248 139 125 131 138 137 97 142 137 131 123 127 141 139 140 146 129 139 164 152 177 151
163 175 171 176 180 176 179 180 177 178 118 172 171 156 162 182 192 178 188 193 196 222 179 114 145 169 140 132 125 141 152 140 126 124 104 113 136 128 137 120 147 139 133 128 123
181 174 171 171 175 181 173 175 176 167 166 171 171 176 182 143 164 185 178 183 183 192 195 208 119 130 237 209 135 125 140 136 133 146 137 105 124 142 146 135 148 155 144 125 126
169 167 162 177 156 167 170 154 160 151 156 164 167 180 179 182 180 187 174 189 176 201 201 203 195 185 116 163 156 202 154 100 124 144 110 121 137 130 112 135 119 138 127 135 125
172 167 160 166 162 169 171 163 161 159 159 167 173 183 184 169 176 176 187 184 178 191 207 177 195 221 170 131 168 205 67 154 94 129 153 135 138 118 145 120 131 143 129 127 126
168 171 165 173 164 165 166 163 166 160 163 182 166 167 175 115 172 172 174 176 188 182 183 195 192 228 213 173 195 124 202 173 147 136 133 149 145 144 142 132 117 126 126 140 138
190 181 178 194 199 186 175 173 173 168 166 172 170 179 168 174 177 186 184 106 181 185 195 195 167 232 191 211 172 228 139 131 228 113 140 125 151 133 144 118 146 147 151 118 129
160 149 157 182 183 184 178 178 179 180 172 171 176 179 181 179 172 179 189 184 184 185 191 189 200 188 166 179 182 170 170 124 131 99 132 139 131 143 152 144 112 149 157 143 135
178 174 179 181 162 152 179 184 181 176 176 177 180 183 145 183 184 188 192 186 184 179 189 190 184 199 165 185 198 189 205 111 118 237 140 109 130 123 146 114 120 139 135 146 136
211 210 210 205 208 192 204 197 193 169 171 154 184 186 188 190 190 193 192 192 192 195 185 189 179 209 165 195 207 217 180 183 191 115 77 142 135 138 144 154 108 101 132 149 128
232 232 234 232 231 230 231 234 233 220 212 203 206 196 195 194 191 199 180 195 187 194 170 188 202 201 203 203 195 210 214 215 176 120 207 75 98 114 148 114 141 116 117 116 127
318 315 403 432 314 312 304 259 257 259 254 249 238 223 218 203 195 187 196 189 192 190 197 192 201 202 165 189 183 212 219 208 209 193 195 207 171 105 96 124 136 166 154 110 124

GFSSW_2pvu_pres_021.txt.gz
Presure
119 117 116 116 118 122 116 121 120 121 121 138 126 127 132 139 146 146 152 160 157 154 184 133 178 140 127 124 143 143 145 101 123 112 147 127 141 145 136 131 112 147 133 131 134
105 117 124 109 124 124 123 117 122 120 126 123 124 128 123 126 135 140 145 151 148 144 157 176 177 137 134 132 126 125 130 110 125 127 128 134 135 146 137 109 111 132 138 140 141
115 119 133 109 121 125 116 119 119 101 126 124 125 126 130 127 115 131 133 143 147 153 157 168 138 172 132 131 132 131 127 132 134 135 134 133 136 141 109 133 138 141 142 146 143
127 131 141 139 140 120 133 120 116 117 118 120 127 130 122 138 130 118 125 133 138 146 150 153 164 164 136 132 179 149 134 134 136 132 136 146 152 155 155 157 158 156 160 145 153
118 126 128 131 126 119 114 117 127 127 110 123 126 130 123 138 133 124 125 126 129 136 141 146 148 157 162 163 166 171 157 154 150 156 177 189 225 263 255 251 252 161 173 133 133
129 127 128 137 114 142 144 100 125 115 116 118 115 111 121 138 128 120 133 121 134 131 136 141 128 137 146 156 158 159 162 163 165 162 161 158 185 250 244 243 236 227 190 157 148
150 103 105 108 121 123 116 87 130 135 124 122 124 121 105 104 124 148 140 137 132 125 120 130 139 143 141 141 141 145 150 152 153 144 147 150 177 253 240 238 222 209 187 180 177
155 153 151 150 131 161 161 161 141 145 142 144 100 124 121 121 118 110 125 130 133 139 132 132 121 131 138 143 142 142 142 131 139 140 149 149 175 228 235 239 232 206 196 183 190
158 168 150 193 189 142 141 174 190 173 171 160 157 173 173 195 168 128 127 129 120 110 150 133 140 130 127 140 126 141 140 140 144 143 147 148 155 217 211 232 230 224 206 202 180
123 126 160 162 125 147 148 189 142 121 108 140 106 123 196 210 204 195 154 123 132 127 112 130 112 134 140 118 123 135 141 140 138 153 138 129 141 235 232 227 220 216 206 183 178
183 133 183 183 183 125 193 126 129 131 136 183 110 106 121 122 116 119 201 152 128 193 129 128 124 160 130 128 132 119 126 125 135 134 141 127 150 133 204 224 222 238 217 205 193
176 176 179 178 191 189 187 183 186 164 180 182 185 187 186 151 206 215 219 209 200 146 152 120 138 136 142 135 133 136 124 136 133 135 136 125 142 155 180 234 193 185 185 198 201
177 179 182 186 181 179 178 182 186 181 176 181 191 205 202 201 199 207 167 110 123 131 185 217 132 178 121 121 126 127 137 126 117 126 131 127 133 133 146 157 204 216 220 202 178
192 193 192 193 184 175 177 180 183 192 186 191 207 194 199 191 190 201 198 207 200 134 200 186 189 147 143 134 124 137 128 137 130 124 124 131 132 133 141 151 145 170 187 198 184
173 183 181 182 187 184 167 166 200 199 180 182 197 183 191 196 187 205 193 192 193 198 204 213 171 200 229 134 127 102 137 126 142 153 123 119 133 132 133 136 151 171 170 156 160
207 206 186 174 174 178 178 199 198 193 158 181 188 167 193 186 193 191 170 179 177 185 186 197 202 211 208 224 219 152 138 130 127 143 143 135 131 141 134 138 127 140 172 166 161
205 184 189 202 214 207 204 200 199 201 188 152 185 187 184 186 177 177 179 179 194 184 185 185 193 190 191 206 160 126 147 124 129 133 141 160 104 133 143 135 140 144 183 177 172
218 219 218 204 201 209 206 198 176 192 195 185 181 181 179 185 182 168 181 185 144 171 175 168 180 188 196 204 201 122 208 199 135 119 137 135 151 132 130 131 126 135 152 141 185
206 214 208 220 222 220 206 200 190 195 197 187 192 167 168 100 131 181 185 185 178 184 176 171 178 176 193 187 203 216 235 217 162 144 87 125 138 159 130 134 136 135 148 136 133
256 257 230 214 226 219 211 199 195 194 199 197 165 160 182 176 175 184 180 191 183 191 183 181 172 181 173 185 202 196 206 160 207 205 178 129 94 125 151 139 141 124 139 150 142
231 232 279 234 222 219 211 215 198 198 206 205 198 191 192 183 176 182 186 160 180 150 188 169 184 165 182 177 170 179 150 177 204 223 212 171 142 145 109 151 149 136 124 157 117
240 234 233 247 226 236 218 209 210 202 201 214 197 187 185 183 182 173 181 180 175 173 158 152 160 164 165 181 169 170 185 194 191 202 175 222 176 102 149 138 143 146 143 114 139
238 193 207 226 233 258 253 224 227 212 210 209 214 202 199 168 91 182 172 186 154 162 177 179 154 157 168 168 172 162 172 184 177 176 195 192 128 84 93 140 129 134 143 127 117
193 190 193 188 192 185 184 182 202 231 227 222 217 207 208 192 179 155 153 184 170 109 168 165 171 160 165 174 165 171 160 172 181 103 183 157 180 146 118 113 142 130 138 124 138
392 339 232 206 200 198 97 197 195 191 201 236 223 227 212 110 166 190 194 181 175 185 179 178 186 150 153 167 163 167 168 176 172 163 164 175 179 115 209 137 111 132 143 125 120
442 449 444 461 468 235 215 208 207 199 199 199 198 227 226 217 220 213 190 179 184 158 171 185 195 198 150 153 172 157 159 162 166 166 100 124 173 106 193 219 130 151 136 147 152
421 431 422 420 438 446 453 250 232 223 214 209 208 202 197 199 219 212 201 194 187 174 178 189 190 199 183 169 156 179 147 133 151 157 167 114 92 169 183 194 196 130 210 158 134

GFSSW_2pvu_pres_024.txt.gz
Presure
112 118 118 118 116 115 120 119 126 124 109 124 135 128 130 141 150 157 133 152 168 178 192 153 123 142 123 143 149 170 149 111 120 117 110 125 105 148 143 125 139 145 149 116 147
105 109 110 118 118 118 117 124 124 125 125 120 130 138 129 127 139 143 152 155 150 167 171 153 161 125 128 129 128 126 146 149 129 134 151 173 135 136 133 134 124 124 119 139 142
115 130 127 117 116 119 120 128 122 118 119 127 115 126 130 127 121 132 138 145 153 153 159 169 175 177 135 140 138 138 140 134 130 136 137 134 129 138 141 148 120 151 152 155 152
127 129 114 132 131 131 137 118 135 120 104 120 123 128 125 128 129 125 126 135 142 149 154 160 161 158 171 177 138 133 135 135 136 142 142 143 143 150 151 187 196 193 187 237 184
126 128 126 121 127 127 122 138 143 112 115 119 110 117 121 127 119 137 134 131 131 138 143 150 157 159 139 127 128 131 149 174 139 162 155 162 169 159 168 169 185 258 249 243 181
146 133 130 128 126 131 130 130 129 130 126 121 112 103 115 123 120 117 126 134 123 132 133 140 144 151 156 158 161 165 164 166 173 182 174 172 170 157 152 174 256 246 240 232 215
107 152 154 138 157 161 157 123 136 88 88 133 130 124 121 144 119 101 125 117 138 125 130 127 137 142 147 146 146 154 157 161 167 171 161 157 152 142 151 264 247 232 232 222 202
107 103 103 98 101 124 154 157 149 132 143 137 133 135 131 125 106 114 122 122 108 136 146 142 128 124 128 145 145 138 141 143 145 150 147 129 141 149 153 234 246 233 222 204 198
135 134 136 129 148 175 171 139 161 161 159 160 169 175 116 161 132 131 113 125 122 103 125 134 133 139 129 127 132 137 142 145 147 149 137 148 141 143 151 209 240 235 215 200 192
191 126 119 134 157 146 135 192 158 143 118 198 203 201 190 199 182 153 133 97 133 124 107 134 141 120 155 137 143 125 139 144 147 144 147 148 109 136 139 206 232 224 229 212 199
177 181 140 145 193 190 127 126 119 134 187 128 128 204 202 202 168 139 201 209 118 184 211 138 109 123 109 130 150 133 131 127 136 131 134 141 138 133 147 156 241 217 211 204 185
186 182 183 183 184 184 183 183 178 182 178 194 192 158 129 132 123 106 182 135 197 209 128 187 145 122 126 125 131 144 156 133 128 129 136 132 138 131 143 120 170 198 220 206 208
180 180 180 181 178 182 187 193 184 180 174 182 187 185 187 191 189 180 150 103 131 129 121 131 183 159 140 130 112 131 138 163 143 127 130 134 130 130 132 130 149 147 195 189 195
191 193 191 193 192 189 186 182 200 196 191 184 192 182 184 182 186 193 216 208 210 206 134 207 146 159 155 137 143 116 129 140 126 131 126 127 119 133 128 135 138 145 219 202 169
182 186 184 179 177 178 181 180 182 185 189 187 188 186 183 182 196 205 209 210 199 193 194 191 195 197 201 146 220 154 134 110 104 134 127 132 136 129 126 132 139 134 135 220 218
192 192 191 193 192 199 211 204 202 198 176 177 183 163 170 172 204 189 209 196 192 193 193 195 194 155 135 129 127 201 189 126 116 119 111 155 142 136 122 126 133 134 147 158 157
199 203 211 213 200 196 194 198 208 200 142 135 173 174 181 148 199 193 208 193 202 190 192 192 195 191 197 188 185 230 213 210 140 121 99 124 130 151 115 128 124 132 139 163 169
222 241 243 215 210 210 201 200 204 148 213 186 199 187 101 203 205 191 200 197 188 194 129 182 179 186 187 193 195 206 205 198 269 222 126 116 128 137 141 119 129 131 134 141 154
206 212 206 239 202 229 224 219 221 200 221 216 181 187 185 97 202 200 187 197 197 183 183 177 182 137 182 194 197 221 189 210 194 256 132 100 118 125 135 135 154 128 132 138 153
230 228 224 252 219 214 210 219 208 214 203 214 215 207 206 200 190 197 206 198 195 188 179 175 181 179 184 187 179 181 191 208 207 195 224 159 126 131 137 136 145 156 129 133 146
219 225 166 247 231 228 227 243 216 247 213 206 148 162 122 203 193 190 198 197 195 188 185 173 187 188 187 171 170 164 181 185 216 209 154 236 148 85 105 146 136 141 119 131 141
193 192 244 241 244 237 230 236 236 229 261 251 218 218 219 213 196 197 199 197 197 191 175 179 189 186 192 172 164 175 171 189 182 201 202 183 215 216 152 98 137 132 128 144 130
257 202 201 196 238 210 241 235 237 233 245 243 254 220 220 223 201 201 198 203 199 188 177 177 183 185 190 193 178 182 170 168 171 186 197 190 180 209 170 254 128 120 139 141 120
458 450 447 367 237 203 203 231 220 219 250 244 252 250 219 160 214 204 204 156 203 199 189 179 181 175 194 179 188 169 175 176 166 164 189 189 117 197 199 213 183 128 124 139 144
413 458 445 445 456 446 262 211 204 203 201 208 238 266 240 222 215 222 201 211 209 200 196 185 186 158 151 164 167 166 165 178 165 143 106 128 195 221 113 206 210 123 171 108 125
389 400 456 425 430 433 453 334 253 226 207 199 203 192 191 237 227 219 218 208 217 204 195 189 181 144 149 159 161 158 159 158 171 163 158 85 169 188 216 189 174 202 182 174 144
390 387 436 423 413 413 425 454 468 275 248 224 209 204 198 185 234 208 224 223 213 219 204 205 198 169 160 160 165 152 154 156 165 160 161 150 99 94 189 215 174 188 190 214 218

GFSSW_2pvu_pres_027.txt.gz
Presure
120 112 123 124 122 125 106 122 126 108 117 123 121 137 130 143 152 155 131 132 128 139 147 149 118 117 127 117 117 132 114 102 126 105 113 105 110 159 108 135 138 160 129 133 112
118 116 120 116 124 126 124 119 123 126 117 115 124 122 139 128 155 149 151 157 138 130 175 185 186 131 132 133 138 139 133 124 145 138 164 107 141 134 134 136 134 145 145 111 141
128 130 127 127 127 124 119 118 123 128 124 122 123 106 133 146 128 129 158 151 152 159 167 134 174 184 177 150 135 137 137 135 121 144 133 141 137 139 141 144 149 155 155 180 185
135 132 128 138 114 141 123 120 134 133 119 122 126 134 109 112 127 131 125 131 142 149 151 160 165 135 170 179 188 148 141 142 140 132 137 91 140 146 151 158 182 170 163 182 189
129 129 130 128 128 134 127 137 133 130 146 123 109 116 124 122 126 125 130 132 130 135 140 146 153 160 163 166 138 162 187 172 152 131 138 142 151 165 177 169 168 160 177 188 248
136 140 135 123 129 131 133 133 119 131 133 137 119 121 124 116 134 115 134 128 134 139 129 131 138 145 151 163 166 168 173 164 179 182 185 179 179 170 164 156 154 159 209 246 239
144 145 145 149 122 146 142 144 143 129 131 131 135 135 125 111 123 132 120 117 110 141 143 126 130 133 141 148 152 137 167 170 171 169 168 170 161 160 157 153 154 160 240 236 231
134 123 106 96 145 101 120 154 161 162 163 143 133 126 129 130 103 124 123 113 129 106 117 136 146 135 125 129 133 146 157 151 146 154 148 154 150 121 146 148 153 254 234 230 221
131 126 95 101 102 110 121 120 103 150 169 168 166 152 123 131 133 134 95 134 125 125 134 103 123 133 143 143 150 139 131 146 148 151 149 149 154 153 142 144 151 247 228 219 210
159 158 143 131 129 134 134 126 131 130 123 140 164 181 182 184 157 154 130 127 111 106 129 132 114 143 116 127 149 107 133 142 149 145 145 148 147 148 138 141 148 238 239 207 205
165 166 168 200 160 159 129 122 126 148 162 119 126 128 206 171 212 179 180 144 135 131 129 139 139 110 135 130 125 114 126 155 96 137 135 141 138 137 120 140 133 144 231 219 200
191 164 198 191 185 198 195 167 189 182 153 163 193 191 130 122 112 131 143 183 206 210 152 120 127 141 141 135 120 122 135 120 152 132 132 127 127 139 132 138 138 147 186 219 206
186 191 188 189 185 183 181 181 186 182 181 184 186 188 189 186 174 157 201 117 150 191 154 190 199 115 141 148 148 146 154 142 129 141 153 137 136 135 135 131 126 125 135 193 217
198 199 197 197 198 193 193 189 183 185 179 179 184 190 192 202 193 191 195 187 125 130 102 119 123 172 194 181 220 200 199 117 143 114 138 138 152 134 132 124 133 139 143 207 200
209 212 209 198 189 191 191 193 190 188 194 194 190 193 189 188 195 201 198 193 186 188 191 198 212 111 200 179 133 150 196 114 127 138 129 132 141 126 126 130 126 133 140 138 203
198 196 195 190 188 194 197 195 194 188 179 183 178 178 186 184 186 190 196 200 183 185 210 205 210 200 205 137 127 137 198 141 154 125 158 161 127 130 126 131 125 128 134 134 190
250 252 250 267 242 208 211 213 203 199 198 194 186 184 181 183 192 190 187 191 194 183 199 197 202 202 199 199 198 203 205 210 229 148 92 122 116 149 133 152 130 126 131 135 135
203 203 203 209 223 255 259 238 204 206 206 203 200 81 84 206 199 194 205 185 195 175 82 201 199 195 193 200 89 197 196 215 158 81 71 93 128 134 132 138 151 125 130 128 136
231 246 230 226 229 204 214 229 237 233 249 245 218 209 194 195 195 211 198 214 189 187 188 204 200 197 189 199 200 182 173 205 121 116 271 116 146 117 126 134 138 146 133 130 134
245 252 229 249 238 232 231 214 216 213 208 206 228 187 156 199 203 201 78 142 218 212 195 200 194 198 189 199 186 186 191 178 187 205 167 204 82 90 88 127 134 137 142 142 132
206 203 214 239 243 202 165 206 238 230 224 213 211 212 230 210 112 166 209 183 157 210 207 206 195 192 199 189 101 178 180 183 178 187 193 231 181 140 80 111 133 136 128 136 131
437 464 453 258 222 217 219 253 185 221 255 161 223 225 241 199 214 219 195 220 218 193 209 205 200 190 191 178 185 197 187 178 193 191 180 195 222 243 178 129 125 132 139 128 134
433 414 429 432 481 477 267 239 211 198 189 249 234 263 227 233 206 216 213 203 217 213 214 205 200 194 192 182 180 163 184 135 77 176 188 188 187 207 221 196 127 103 136 134 141
435 415 406 422 421 466 460 368 269 245 205 197 223 246 235 222 223 216 212 210 214 219 210 209 193 201 192 188 179 191 182 171 171 127 176 187 201 193 208 214 215 123 134 131 140
442 420 397 400 409 460 453 453 450 275 262 223 205 208 237 235 228 229 229 220 212 224 217 214 202 199 194 197 172 186 183 170 166 107 163 150 186 212 190 208 134 237 192 191 155
411 405 392 396 427 446 440 445 443 474 279 273 236 211 201 243 233 243 230 244 224 214 227 220 206 202 196 194 187 187 188 172 161 151 147 127 158 180 196 196 178 204 241 182 190
360 400 396 428 425 434 425 429 428 447 456 289 269 262 217 209 222 233 237 258 250 232 228 228 216 211 202 193 184 187 185 182 161 171 164 157 129 172 194 200 203 181 174 230 132

GFSSW_2pvu_pres_030.txt.gz
Presure
122 117 119 121 124 115 123 123 125 111 116 130 126 127 140 148 154 166 172 167 130 181 188 137 143 129 102 105 105 117 126 137 112 135 94 117 149 140 110 159 153 139 129 142 141
132 123 115 115 119 119 127 117 118 124 124 105 133 122 127 141 144 153 150 164 136 136 120 162 157 155 152 118 125 115 132 95 101 110 129 103 140 146 135 130 135 138 143 151 170
136 132 125 129 131 130 126 120 119 110 125 126 112 115 119 126 146 132 149 152 153 169 163 132 139 176 178 160 138 121 122 129 112 152 118 134 115 133 134 144 141 151 160 182 161
131 129 133 137 139 138 128 122 120 118 111 131 126 119 123 127 125 140 132 130 147 152 155 163 168 167 168 156 182 186 145 144 143 148 155 134 133 141 146 148 160 183 173 157 169
142 136 125 125 130 132 135 137 133 127 132 127 125 117 130 129 113 130 122 132 134 127 132 147 153 161 166 167 157 120 133 166 188 216 199 153 146 145 158 179 182 161 157 160 177
140 148 148 124 136 141 139 124 130 132 132 128 130 121 130 118 113 120 125 125 125 122 141 137 133 135 149 158 163 168 164 167 176 166 158 150 188 191 183 175 161 152 156 164 248
120 103 136 149 147 151 146 145 140 144 127 136 132 125 128 149 128 131 126 129 120 138 144 125 134 145 129 138 147 149 156 166 167 169 170 173 173 171 168 159 147 155 151 247 241
132 120 123 135 135 148 137 142 143 144 159 165 137 142 135 134 89 93 125 121 137 134 137 131 139 137 136 150 154 129 139 142 143 134 151 166 163 158 148 142 148 152 159 239 233
152 147 124 118 128 133 109 101 114 133 135 151 138 151 157 161 160 126 125 128 131 152 114 141 112 125 129 131 162 155 147 137 133 139 150 153 146 145 136 148 148 144 159 237 232
179 170 162 156 136 134 136 101 101 95 97 99 104 142 142 144 155 158 131 127 130 102 130 147 133 140 107 128 144 133 142 131 132 132 136 142 145 131 146 143 142 139 140 205 230
152 156 180 188 184 182 184 180 176 150 144 139 135 103 120 137 124 139 184 175 128 132 157 135 100 126 138 137 145 116 125 155 157 133 143 144 144 147 145 134 138 136 147 164 215
194 200 206 204 192 187 173 164 166 149 169 172 184 126 111 140 113 152 162 161 176 205 136 140 145 101 138 133 127 138 124 113 130 135 146 154 136 136 135 140 136 140 136 139 216
196 191 191 191 189 203 210 207 207 164 160 182 201 187 162 188 163 192 192 116 203 192 183 207 161 171 207 145 133 122 145 121 128 123 126 137 144 129 127 137 133 134 123 147 206
193 194 195 197 197 199 198 197 194 190 202 188 194 193 193 195 196 193 176 189 153 109 122 153 199 209 193 201 168 119 164 144 130 146 113 131 141 126 125 138 134 132 134 136 140
207 209 203 202 204 206 211 201 194 205 202 198 190 191 190 192 181 182 186 182 184 199 197 185 164 195 115 142 184 202 157 214 203 149 146 129 147 139 141 131 127 126 126 138 135
247 223 220 206 203 200 198 200 202 212 200 203 199 197 199 198 192 190 194 184 189 194 202 196 173 188 172 162 124 118 127 227 144 203 100 140 140 135 144 129 134 126 130 136 141
205 207 217 234 241 247 257 258 223 208 191 193 199 192 186 187 192 147 193 197 196 192 183 199 199 188 164 183 160 135 124 130 217 153 96 129 170 115 137 123 124 132 126 131 135
177 248 232 239 237 209 207 218 258 265 228 207 200 182 194 201 205 194 194 188 186 183 187 190 198 197 186 123 217 217 213 205 212 206 89 100 129 144 116 127 130 132 126 131 132
250 254 192 173 161 201 228 243 226 215 242 253 251 214 211 188 189 186 186 180 179 185 191 184 177 191 189 184 219 208 109 203 200 86 210 122 155 114 105 126 168 127 147 138 132
205 266 259 227 213 198 193 174 223 233 247 206 207 263 234 215 205 204 206 207 199 204 78 137 202 186 188 189 215 82 153 194 187 193 192 206 215 117 184 125 132 135 135 140 136
390 400 481 487 463 429 245 229 210 179 243 233 245 203 226 238 223 206 205 207 208 208 206 208 193 193 189 179 201 195 199 183 187 192 202 213 199 137 138 134 174 130 138 140 124
372 384 452 474 448 439 445 458 244 172 178 175 253 234 233 203 241 129 78 211 215 207 206 198 199 196 203 174 199 203 199 188 186 179 192 203 217 200 103 89 91 112 114 135 137
338 357 383 440 430 427 434 432 475 285 250 226 180 224 239 227 213 232 244 237 232 221 205 203 197 199 210 193 210 169 106 185 176 184 191 184 197 208 133 121 191 171 134 126 140
322 327 355 372 442 454 435 422 468 471 310 274 233 168 218 203 231 193 152 211 211 236 217 161 204 215 198 209 201 203 201 177 173 174 179 187 182 195 202 139 235 192 114 134 123
308 320 343 367 409 440 456 449 444 447 465 286 267 251 203 186 176 231 230 216 207 212 233 217 195 205 203 211 210 167 203 177 165 97 177 182 190 193 192 198 233 200 173 186 173
299 306 322 341 360 434 449 427 431 437 444 474 290 269 253 228 183 255 166 228 223 210 217 201 215 204 226 194 211 205 199 179 175 165 163 173 183 189 199 191 196 219 224 190 143
293 305 311 329 351 368 426 424 418 417 436 452 467 315 271 251 226 184 256 250 232 220 220 235 230 222 219 211 216 211 194 175 176 165 166 177 181 182 190 197 194 189 213 233 210

GFSSW_2pvu_pres_033.txt.gz
Presure
125 120 111 123 119 122 114 126 128 115 124 130 129 128 134 136 157 174 162 125 144 148 155 146 132 143 147 147 146 119 152 157 96 159 136 108 109 122 110 142 114 118 132 140 140
121 125 123 131 112 117 115 121 128 124 127 117 120 133 128 129 148 147 162 177 170 147 140 176 159 146 87 97 91 122 122 110 114 109 107 146 111 117 107 108 135 133 138 147 154
131 128 130 132 129 120 123 130 121 120 123 128 128 114 132 127 126 133 131 151 157 174 178 141 125 139 185 152 159 123 117 122 155 106 119 115 102 133 105 122 134 139 152 159 182
141 140 135 128 129 131 136 131 130 120 119 116 121 125 129 128 127 129 128 150 134 148 151 168 174 173 138 152 166 191 162 131 126 165 157 153 120 174 135 139 142 152 167 163 150
142 146 148 135 137 141 113 121 126 133 136 132 127 115 127 114 119 127 112 126 138 124 129 140 136 156 171 170 168 172 144 166 180 169 192 213 139 172 155 140 174 188 170 156 157
125 140 128 132 142 147 151 146 134 140 136 129 134 127 139 130 122 130 123 117 124 130 130 136 136 149 131 142 159 167 169 173 173 159 116 130 137 145 181 206 187 166 149 149 159
134 133 132 129 129 132 132 138 145 150 111 126 128 130 133 128 125 132 129 130 120 123 125 154 127 143 140 138 135 138 148 153 157 167 170 174 175 176 178 177 168 149 152 152 157
125 133 127 130 133 132 136 145 133 135 153 146 150 145 136 128 121 114 122 115 136 137 133 121 130 131 142 131 155 145 132 134 147 146 144 152 159 169 168 165 140 143 142 156 162
145 144 127 106 107 108 95 108 115 133 138 138 146 142 145 153 131 140 127 115 130 135 140 138 139 122 139 128 128 140 138 145 132 137 142 148 148 150 144 137 144 145 147 145 164
147 160 165 162 161 166 149 123 168 150 140 133 134 138 137 142 139 143 143 159 149 128 135 98 117 142 137 146 129 125 122 135 142 148 146 140 145 151 149 139 148 142 148 140 162
186 145 144 143 143 184 183 140 181 138 167 103 103 147 135 129 149 149 140 145 148 152 133 130 123 97 114 129 148 145 121 145 145 147 138 136 140 144 145 144 141 137 146 139 156
197 198 198 201 193 200 170 178 178 167 155 156 143 157 169 171 111 132 139 131 147 158 149 185 138 131 133 111 139 115 124 142 139 129 147 142 142 141 142 148 140 137 132 146 140
209 198 199 203 204 206 182 193 202 196 179 187 193 190 189 190 180 150 140 135 129 124 140 144 150 166 157 134 120 164 139 131 122 137 142 132 121 147 137 140 141 138 139 132 153
200 202 204 206 207 208 207 206 205 212 213 185 173 193 197 182 166 166 139 118 129 116 134 137 172 89 196 176 191 146 129 118 104 137 194 122 147 138 133 134 138 138 134 125 144
207 211 211 212 215 217 217 215 208 208 210 203 192 195 181 213 181 206 204 208 162 134 209 133 113 198 201 195 204 208 193 176 133 122 149 121 146 122 175 133 128 140 134 134 139
227 236 243 249 256 249 235 218 215 219 203 205 196 198 206 200 198 197 210 204 182 196 199 190 194 168 185 143 117 183 210 204 206 123 159 119 141 129 158 138 120 140 134 133 134
226 246 222 219 210 214 236 223 263 259 218 222 225 204 192 203 197 200 201 193 187 189 178 183 190 163 192 174 146 163 116 124 181 170 138 151 95 174 130 138 132 130 132 129 134
245 251 252 256 255 255 253 250 220 209 158 68 229 211 200 195 200 209 191 208 194 188 184 186 185 184 181 178 202 192 195 194 118 197 143 138 108 135 142 174 133 130 135 132 132
223 283 384 382 413 374 274 192 197 245 286 256 216 250 215 198 194 196 210 202 196 197 195 196 185 189 190 193 203 208 191 163 200 110 213 207 109 123 136 133 150 123 122 131 131
351 360 357 348 382 410 503 481 333 251 195 206 265 220 199 264 228 219 199 202 212 204 194 189 196 197 76 199 192 204 144 158 204 204 161 86 112 144 115 123 145 171 125 140 126
325 335 330 337 361 370 425 469 455 464 233 184 192 244 236 216 198 242 224 213 195 192 203 189 192 183 195 193 160 181 198 180 195 194 114 166 212 222 132 127 143 134 175 128 171
312 314 312 328 324 361 370 470 463 451 460 475 189 183 207 262 224 201 233 232 216 198 191 88 80 94 182 182 185 174 188 183 200 95 169 205 108 209 218 222 187 189 153 143 138
301 302 309 317 322 341 360 419 445 461 445 506 312 236 191 198 245 229 213 179 209 217 203 193 183 182 181 181 188 188 113 98 175 102 195 205 203 198 196 219 215 199 194 195 136
295 295 309 313 320 335 359 399 470 457 440 488 495 274 222 216 211 234 239 217 139 229 220 210 198 195 195 149 122 83 208 181 181 186 186 192 203 197 202 141 210 95 94 180 121
283 291 298 309 316 329 353 387 433 423 436 462 469 465 270 206 190 217 242 223 216 201 209 223 212 202 198 196 101 189 208 191 170 180 181 188 199 204 195 177 202 89 206 126 128
286 303 302 305 319 337 360 370 407 428 435 449 450 458 324 263 211 187 209 242 225 220 208 208 217 207 201 204 204 209 189 201 165 75 183 181 190 206 200 192 213 192 246 115 125
307 304 307 323 338 361 357 369 389 415 424 434 446 453 456 286 264 222 189 202 242 229 225 212 214 225 215 218 207 208 188 209 167 174 174 174 186 195 200 197 188 84 201 223 204

GFSSW_2pvu_pres_036.txt.gz
Presure
125 125 133 113 116 120 124 121 127 136 125 126 127 132 137 150 159 176 136 144 148 145 141 126 144 135 144 140 125 147 110 144 95 96 123 150 138 100 137 123 113 115 123 136 140
110 113 121 120 114 113 116 117 126 123 130 131 131 125 127 135 141 154 162 186 130 119 149 150 152 133 140 147 133 147 129 114 114 139 112 139 114 150 133 112 116 137 126 141 149
133 133 135 133 118 122 126 113 119 126 124 123 126 134 131 124 126 133 131 148 166 188 182 147 141 162 163 154 123 109 101 125 110 111 148 112 104 125 115 113 122 127 136 144 167
134 139 141 140 136 131 130 130 132 122 121 126 123 124 115 131 138 128 126 133 144 143 157 163 137 145 135 133 147 216 280 137 109 120 178 153 122 185 131 145 136 136 165 171 191
117 127 132 128 133 140 139 136 136 126 126 129 129 121 118 123 124 124 119 134 126 140 134 144 149 164 157 175 179 149 138 182 184 184 158 169 171 133 170 153 210 156 195 177 151
123 133 129 130 128 128 136 132 144 147 140 137 129 131 130 121 139 124 121 131 135 118 138 128 127 144 133 131 149 154 166 171 167 146 175 171 174 176 151 135 181 201 170 149 145
133 131 131 127 120 134 134 132 132 137 140 140 152 137 139 131 132 136 127 112 130 115 111 120 125 127 126 134 136 131 148 144 114 152 160 160 170 173 173 171 181 172 152 150 151
133 115 124 135 134 132 133 129 132 133 131 136 139 141 153 119 127 127 134 145 126 137 130 125 125 121 139 136 141 124 134 150 136 133 147 147 154 159 162 169 164 148 148 151 144
119 134 108 104 112 120 131 131 135 137 134 143 133 137 137 139 157 148 132 129 131 119 121 127 142 143 126 135 125 150 156 135 132 141 148 146 145 143 152 147 145 134 148 154 139
148 118 116 141 150 120 115 150 126 133 147 110 149 143 141 144 144 138 102 119 114 130 128 133 132 131 143 139 139 128 139 128 148 143 131 159 137 138 150 143 153 145 142 143 139
186 182 178 172 187 152 179 135 161 161 115 106 108 158 156 143 141 138 143 147 143 138 102 133 136 138 132 129 109 138 147 131 140 128 130 147 133 135 141 139 134 136 143 143 137
199 200 199 196 200 199 195 195 198 196 167 164 161 153 162 161 166 156 139 141 143 148 145 140 137 142 121 122 125 139 135 119 120 140 147 140 131 133 137 138 137 139 136 141 140
208 212 217 219 220 218 212 209 208 204 193 202 199 197 192 168 153 169 159 154 138 144 125 150 149 147 121 112 112 122 125 137 114 143 137 143 133 154 137 142 137 143 130 140 143
214 215 214 217 215 216 217 223 228 227 225 168 168 164 162 162 181 187 120 113 179 110 122 145 150 148 147 144 121 135 133 148 117 109 124 110 136 149 152 141 140 147 137 139 128
248 247 245 249 231 235 233 227 225 222 223 210 206 151 222 214 135 161 203 168 185 193 197 182 137 142 138 144 148 145 149 125 168 178 135 116 152 118 142 147 134 137 141 136 138
238 218 225 227 237 243 244 262 276 244 225 205 217 209 218 213 195 219 213 184 183 186 197 188 189 180 176 97 131 142 142 173 169 211 211 150 160 202 196 142 140 134 132 137 135
229 204 207 198 240 232 231 248 257 251 187 251 265 218 219 215 198 206 203 198 226 192 164 182 177 130 77 124 154 146 142 157 159 192 155 155 215 204 132 136 127 175 126 128 135
378 385 373 236 247 170 186 321 255 208 103 253 284 192 249 199 207 212 204 203 202 194 186 212 205 210 86 158 194 136 173 177 191 193 97 215 208 111 137 127 120 130 157 127 138
356 346 340 353 345 356 370 387 239 229 256 227 217 252 242 255 223 209 205 202 193 192 198 197 180 206 204 197 196 193 189 168 125 182 196 178 200 211 114 206 207 211 185 135 134
332 328 331 325 329 328 344 349 362 357 421 524 273 235 152 247 198 249 167 212 205 200 198 194 197 197 203 183 181 193 193 194 191 181 195 161 136 172 206 131 119 210 120 151 165
317 315 328 314 308 321 324 342 348 367 404 511 471 286 205 221 239 154 191 210 174 216 211 199 201 200 209 197 191 178 177 180 175 187 195 197 165 107 207 118 111 102 145 155 137
298 299 303 309 309 316 332 335 339 364 437 486 476 436 284 257 206 224 225 203 194 228 208 199 209 208 209 205 194 181 183 179 89 179 192 198 198 127 97 184 205 120 105 110 131
302 335 329 327 327 324 326 330 347 374 431 442 502 487 379 277 251 221 222 249 169 225 232 181 192 191 213 205 203 199 171 188 191 184 171 197 204 175 216 101 227 117 122 168 155
298 308 329 342 411 369 358 362 367 392 423 399 421 476 383 353 265 236 237 235 259 222 196 229 204 193 187 166 78 152 188 108 190 176 178 190 185 196 211 198 210 213 211 186 198
288 289 305 311 328 382 387 373 375 392 376 400 425 440 481 350 342 252 177 204 252 251 217 218 225 193 198 169 199 113 183 177 183 172 173 182 192 84 203 199 196 208 220 209 205
289 284 294 307 314 327 397 384 375 381 385 422 456 433 456 357 328 318 207 204 79 85 234 87 91 90 205 184 185 185 206 187 82 174 176 177 186 192 193 139 197 197 203 224 211
299 298 304 305 309 317 319 389 388 384 388 402 424 421 483 381 330 330 268 197 187 241 248 225 164 236 174 201 190 191 183 85 86 157 170 175 179 189 190 204 194 196 204 121 126

GFSSW_2pvu_pres_042.txt.gz
Presure
110 118 117 122 125 118 116 125 140 118 119 140 159 168 153 178 147 149 133 137 136 122 106 102 118 126 124 141 117 119 122 117 149 143 122 109 134 159 153 142 156 140 145 132 137
120 117 117 123 124 115 121 117 109 129 122 126 134 144 159 163 146 182 135 138 124 117 119 121 116 109 117 129 144 118 121 113 112 104 111 105 141 119 136 118 115 135 110 125 133
121 118 118 117 114 119 124 119 120 115 114 138 118 127 133 144 156 164 151 228 148 139 143 150 135 138 124 121 131 114 129 130 129 128 123 128 120 111 144 109 110 125 223 138 137
133 131 133 131 125 126 141 132 129 125 117 112 119 129 122 124 131 138 159 163 113 138 155 157 156 148 149 140 138 96 143 120 138 135 125 113 103 140 125 200 180 205 127 171 148
129 125 135 126 132 131 134 132 130 122 126 129 116 112 116 118 131 122 132 139 151 160 174 162 119 142 153 157 152 139 112 139 138 138 124 160 106 208 200 158 174 124 160 138 164
136 130 138 130 121 131 127 120 133 137 138 134 132 132 117 115 129 133 128 126 139 134 138 148 150 157 110 146 185 187 158 151 147 121 149 188 177 170 166 169 169 169 143 167 158
130 126 130 123 130 125 123 117 115 130 137 131 133 134 133 124 131 119 115 134 130 127 128 134 136 143 151 149 153 151 155 158 157 154 155 157 164 156 159 162 162 162 166 161 148
149 145 149 146 143 143 144 146 142 127 126 121 118 134 136 134 134 132 133 132 115 134 128 127 128 143 140 138 145 138 143 145 139 138 138 101 152 148 148 150 121 158 159 151 147
167 162 167 133 143 151 144 138 108 135 134 129 118 124 127 121 128 139 135 135 137 123 125 130 137 131 129 133 133 148 134 130 142 132 136 133 137 148 144 153 152 147 149 142 145
184 177 182 184 185 179 176 122 146 134 135 136 132 125 111 134 130 127 133 147 121 147 138 129 143 120 138 144 130 135 135 131 131 127 130 156 137 144 137 140 153 147 141 136 138
184 186 188 197 195 193 197 191 185 152 158 127 133 139 138 135 134 132 119 131 136 138 131 154 145 138 146 124 120 123 127 129 150 138 131 125 142 139 134 134 153 143 137 150 137
203 213 222 224 223 225 224 213 191 134 142 185 148 149 146 107 133 132 131 127 114 133 140 139 116 111 135 138 128 121 122 129 144 155 143 134 128 137 128 132 136 143 147 145 135
230 221 219 222 220 222 208 227 231 231 214 205 122 136 132 134 115 153 144 147 117 143 136 140 95 142 151 156 137 141 142 146 132 145 127 147 140 126 125 126 127 135 139 164 126
233 233 236 236 245 251 257 256 238 232 231 234 227 216 180 187 152 146 128 150 104 121 145 141 139 102 139 145 152 155 146 144 114 108 146 139 163 125 132 127 130 139 144 145 126
271 266 261 270 275 277 254 245 252 160 261 265 234 233 233 235 205 145 167 125 135 139 160 143 127 110 153 152 146 141 138 140 149 116 120 136 124 119 126 160 140 134 144 131 133
268 257 238 242 248 258 256 265 278 289 92 244 246 258 263 134 229 228 218 115 177 167 122 152 93 132 111 146 149 155 156 154 151 141 152 135 146 126 156 125 136 170 131 134 137
253 247 274 260 367 361 357 364 389 417 343 268 251 254 289 259 266 130 220 225 218 158 153 173 171 83 90 158 113 156 137 107 121 148 144 125 147 140 119 125 129 131 173 213 139
263 246 338 346 338 350 349 350 356 372 427 371 366 392 304 259 254 266 273 227 140 170 220 130 162 182 175 141 140 130 170 95 107 147 146 108 134 118 132 133 131 123 153 183 139
267 377 344 319 324 332 314 312 322 334 242 187 169 361 374 387 289 267 258 264 237 133 223 227 167 137 157 134 153 136 162 139 145 138 145 99 120 93 158 146 119 152 143 155 141
380 342 315 317 326 299 309 313 310 327 342 407 435 199 222 257 369 235 294 256 264 259 170 218 224 198 193 179 144 189 120 139 184 175 178 85 160 148 143 147 151 153 125 189 120
342 319 320 305 294 295 293 302 304 316 325 393 440 161 355 247 366 242 300 293 256 258 261 230 166 209 222 153 193 196 73 186 166 196 188 187 150 118 111 132 145 147 148 197 141
315 324 294 288 296 293 293 298 303 304 325 352 457 391 360 359 288 301 365 300 289 253 254 250 225 216 96 209 210 207 165 200 161 100 180 112 200 114 159 197 170 152 155 114 112
311 306 288 282 270 272 281 284 303 315 323 340 440 440 384 368 354 346 97 314 283 269 96 250 246 212 209 203 218 212 208 203 148 187 185 186 193 200 114 148 195 136 160 194 191
321 295 282 270 274 270 276 281 304 314 324 339 413 431 423 436 382 367 395 229 309 299 251 253 258 226 213 152 208 208 200 211 195 195 205 198 181 198 179 117 197 200 199 167 198
294 273 275 264 263 274 275 283 288 308 327 347 385 404 420 411 432 468 387 347 271 210 246 248 224 252 198 211 207 164 197 155 203 204 115 124 213 169 211 214 208 201 203 166 208
293 266 265 268 268 276 277 283 290 302 323 349 377 394 409 412 446 440 390 367 351 269 296 87 239 243 241 224 202 204 213 152 193 193 88 187 185 190 196 200 197 184 199 144 194
264 258 255 257 254 264 264 275 294 307 323 353 380 378 397 420 432 427 455 336 343 319 296 288 236 231 124 242 229 65 200 130 160 117 185 93 160 188 196 197 198 200 200 189 182

GFSSW_2pvu_pres_045.txt.gz
Presure
120 109 109 115 120 141 133 125 125 128 160 157 170 122 134 130 131 135 146 139 117 135 136 113 118 136 124 120 111 108 127 138 133 140 147 117 130 106 139 149 130 126 122 152 183
117 113 114 108 116 118 129 125 120 130 122 142 161 163 155 148 154 144 154 143 131 136 131 149 139 122 138 131 117 127 104 125 123 111 103 121 116 108 126 131 113 121 127 170 142
120 122 124 123 119 120 117 114 117 127 129 127 132 147 159 169 140 188 137 138 141 143 144 131 143 104 117 121 119 115 106 109 128 134 115 103 148 117 112 130 167 177 171 130 128
133 120 121 123 117 125 118 117 112 114 118 118 130 125 139 149 158 152 145 210 135 132 120 145 141 111 145 114 114 122 117 128 109 130 131 128 112 110 117 175 179 165 165 171 136
129 130 135 136 128 130 129 119 118 118 112 116 116 141 131 126 140 151 161 166 162 230 152 134 131 131 135 141 129 124 127 133 96 144 138 121 117 146 175 178 160 164 167 145 166
132 139 131 133 133 136 138 135 136 137 131 131 117 115 117 123 128 132 138 148 160 170 168 142 143 156 153 144 137 148 107 140 113 106 133 150 170 134 177 157 158 159 165 169 157
140 140 128 128 134 117 117 124 129 130 132 134 138 122 120 114 124 117 126 129 134 142 156 169 169 191 135 139 138 93 151 139 121 169 183 134 195 173 165 156 158 159 161 165 155
150 155 148 137 146 136 136 136 122 130 135 124 130 140 148 130 123 122 116 120 134 132 138 137 139 152 154 161 153 173 122 157 184 150 140 164 158 152 152 147 149 119 159 159 150
184 174 160 155 160 156 145 129 122 133 127 122 115 124 132 106 135 130 124 123 117 126 130 126 131 134 137 140 140 149 153 156 153 152 147 140 143 149 135 143 143 151 150 155 141
191 190 194 199 184 158 156 159 157 141 144 119 119 134 128 134 132 142 141 139 142 128 119 122 129 126 129 135 127 143 147 152 136 139 140 145 139 138 137 141 157 146 143 150 140
221 221 205 212 197 202 205 204 158 160 169 137 148 148 132 131 131 125 130 146 144 139 135 121 124 133 124 113 127 131 133 115 137 131 130 142 130 165 135 147 142 135 152 158 143
246 242 230 229 223 225 225 229 199 211 209 179 165 142 134 130 139 143 137 134 129 141 135 146 108 144 119 128 123 131 132 133 127 131 135 133 135 141 127 143 141 158 140 139 138
229 222 246 279 279 264 248 242 229 226 223 241 225 175 166 136 141 139 144 142 136 140 134 133 104 104 144 144 150 138 123 132 129 129 126 137 130 130 126 140 133 149 127 133 170
244 258 235 206 231 282 270 274 287 253 250 236 210 239 227 177 161 148 150 138 145 134 143 128 133 141 140 137 131 151 151 126 131 120 123 140 149 123 133 128 128 138 134 130 159
250 267 249 241 274 260 251 254 292 282 280 309 261 260 234 235 114 173 164 145 133 142 129 139 142 139 125 138 125 138 145 157 154 118 120 134 142 143 141 130 139 128 138 162 138
257 254 249 270 245 270 266 282 289 296 296 294 287 294 230 206 131 229 119 174 134 153 152 116 92 98 103 141 142 151 149 136 97 162 121 109 114 139 151 126 151 137 128 134 147
252 239 246 265 262 301 379 369 368 360 362 378 374 291 293 289 233 263 92 231 155 160 168 138 148 96 125 87 122 97 148 138 147 143 101 144 131 150 150 159 122 119 141 140 155
241 252 263 243 319 362 348 360 342 333 340 345 351 371 397 286 294 293 257 262 237 228 137 98 153 155 156 155 81 94 124 120 141 94 138 132 133 123 137 149 125 165 132 136 144
263 253 250 316 348 342 324 319 310 313 315 327 327 346 363 426 354 293 290 302 271 235 238 195 135 127 150 167 148 116 149 151 153 157 140 104 146 116 135 134 151 118 122 130 123
252 248 271 337 334 314 305 292 290 297 300 308 318 332 341 376 425 368 288 293 294 265 239 200 202 97 152 129 147 93 112 131 166 165 133 117 148 140 148 144 136 129 129 142 115
247 262 338 335 316 289 281 289 279 288 297 313 323 332 343 364 466 361 368 295 291 301 259 256 229 232 192 190 163 172 165 122 162 163 165 165 150 130 158 156 149 133 149 118 124
259 342 342 313 284 280 274 281 284 291 292 301 314 333 345 360 107 366 100 374 288 286 299 255 239 225 230 204 125 187 194 180 125 166 149 135 104 93 111 87 100 165 177 139 154
272 327 298 283 276 273 278 286 287 286 293 312 321 334 353 143 116 386 343 361 269 268 259 296 259 233 217 221 180 204 193 188 184 188 187 171 169 169 156 163 141 144 142 173 152
325 321 283 271 268 258 263 269 283 282 295 322 327 342 353 397 446 409 341 348 356 380 277 286 271 252 228 220 229 232 163 195 199 172 172 161 142 150 188 141 203 170 120 167 141
315 282 270 266 263 263 263 266 269 274 301 328 336 344 351 389 421 445 348 336 356 381 354 302 296 247 263 229 221 214 218 213 116 182 194 182 177 191 102 175 182 86 164 130 96
286 267 260 255 250 255 260 267 278 285 290 332 343 350 359 393 397 433 378 340 352 176 94 104 232 243 246 250 218 207 90 86 174 194 189 181 189 189 185 194 177 169 166 127 88
272 258 267 249 251 261 257 279 281 288 298 343 344 354 377 397 385 359 461 368 348 353 367 219 268 236 132 210 234 215 209 205 205 210 115 176 135 183 201 193 195 191 181 175 203

GFSSW_2pvu_pres_048.txt.gz
Presure
113 114 108 112 132 133 129 134 131 161 169 170 161 131 137 137 132 142 142 139 138 139 135 133 113 123 138 126 122 125 114 129 109 115 133 147 152 138 145 111 122 145 122 148 132
114 114 114 113 116 117 121 119 118 138 161 170 171 151 162 122 139 133 140 136 126 140 139 135 132 126 122 138 131 122 138 142 134 143 132 134 117 123 112 138 137 157 178 162 134
117 117 116 113 114 112 114 119 126 133 131 147 172 174 172 175 136 132 137 137 141 139 110 144 141 141 112 115 104 134 126 135 122 114 109 110 94 127 139 123 140 175 162 159 131
124 119 121 123 123 119 113 115 120 122 124 122 138 169 170 178 163 136 135 130 138 134 140 126 131 140 139 136 124 150 132 125 98 104 144 105 133 145 116 111 177 168 162 165 162
130 128 126 126 126 124 121 119 118 121 120 119 122 135 138 167 169 175 148 138 135 141 148 142 131 144 126 112 127 131 109 110 108 132 113 119 148 146 112 164 172 161 162 157 163
124 121 127 130 128 129 134 126 125 119 119 119 120 117 119 121 134 168 170 171 156 173 140 122 133 123 144 123 144 127 130 114 129 109 107 103 132 106 152 145 184 159 159 157 161
140 142 142 136 140 136 133 132 135 134 135 118 120 125 121 120 122 143 149 164 168 172 143 191 133 129 125 128 127 135 138 142 128 143 143 132 147 153 160 176 168 156 155 157 156
137 150 147 144 139 138 128 127 134 134 134 138 139 140 128 120 126 115 124 136 149 162 166 168 178 208 210 160 142 126 146 136 145 153 144 141 154 127 184 166 149 150 150 155 152
169 143 160 154 153 154 146 147 136 136 125 118 127 137 139 125 110 128 122 119 124 128 132 148 161 166 129 150 137 140 108 147 151 159 156 194 134 190 150 157 143 142 147 146 151
184 162 163 167 173 156 147 161 159 150 132 141 141 142 131 133 95 134 120 127 127 120 119 130 130 142 144 159 161 171 169 183 202 180 152 163 156 144 143 143 140 142 147 142 156
202 197 194 195 203 204 202 174 171 195 159 162 142 142 136 140 132 130 142 146 123 124 123 120 127 130 133 142 145 138 147 148 151 148 151 151 143 133 143 130 134 147 137 140 151
227 234 231 225 225 233 273 264 238 229 209 213 157 158 146 130 131 126 124 140 143 140 136 127 120 123 133 134 135 112 134 118 136 140 149 138 126 152 147 147 129 135 135 137 146
225 225 214 230 239 245 247 218 263 274 260 264 239 187 157 164 154 118 145 125 132 138 142 141 121 143 129 115 117 90 106 141 133 138 138 146 127 139 124 134 128 135 140 142 142
208 205 200 216 210 247 262 253 272 261 222 283 288 273 236 215 155 161 151 148 150 132 153 145 116 93 98 115 131 128 128 124 131 132 138 126 133 126 125 127 128 126 136 146 141
212 193 193 203 199 202 270 276 274 274 276 265 220 261 303 210 225 239 166 114 120 157 142 131 100 130 151 85 95 133 121 149 98 121 136 119 128 129 126 126 124 125 134 140 135
225 196 186 172 183 259 261 261 266 265 275 280 295 280 219 229 305 280 241 194 180 156 145 82 101 140 132 88 130 101 117 125 157 132 100 117 120 117 129 138 128 113 123 126 133
191 224 238 229 230 254 269 284 275 281 341 390 380 388 391 297 287 265 304 257 242 172 138 128 142 146 98 100 141 151 143 159 137 113 100 134 137 127 136 141 132 133 133 129 148
220 240 207 244 250 280 274 275 298 352 343 316 289 348 352 371 375 93 283 305 271 229 241 157 88 149 150 141 149 141 130 135 141 112 129 142 139 150 114 147 118 106 117 120 124
253 256 264 271 277 265 263 362 335 332 317 314 319 331 333 335 332 357 130 101 302 286 235 252 165 154 154 89 143 90 89 141 140 102 105 103 115 160 125 158 152 151 142 129 131
258 282 283 264 256 261 352 329 314 299 299 300 297 297 309 315 322 340 367 328 295 300 314 213 244 186 111 158 158 89 92 93 134 140 138 120 121 137 146 121 104 159 144 131 129
253 275 257 245 277 334 312 295 291 292 292 290 300 294 308 316 318 321 247 367 382 296 303 303 232 214 121 171 165 104 116 142 137 101 139 138 138 131 99 132 152 145 116 118 127
274 251 244 340 326 301 288 286 279 272 281 277 283 294 290 307 322 324 331 352 372 382 299 298 194 231 103 203 117 172 80 127 84 150 150 131 119 146 154 93 158 143 139 135 124
245 249 333 308 286 274 276 271 271 264 275 278 288 290 294 305 340 335 347 363 380 394 464 301 305 258 98 232 197 173 170 103 101 91 115 156 87 70 113 135 145 130 157 152 127
254 353 299 275 268 260 253 264 261 258 268 278 284 293 307 318 352 354 360 351 471 452 441 380 241 294 247 229 233 231 143 168 105 132 135 99 123 155 158 132 162 115 137 143 135
338 291 276 271 258 253 254 254 259 262 266 276 286 337 355 353 354 221 369 398 391 418 411 388 321 292 254 255 232 235 229 194 178 159 115 147 151 115 120 134 155 92 167 143 154
282 276 264 253 250 252 247 247 249 258 264 284 357 364 360 356 356 360 372 397 418 404 388 377 392 291 276 252 254 228 233 232 191 177 155 160 153 158 155 145 162 153 100 102 158
270 262 257 251 248 245 241 241 249 253 255 356 378 366 358 355 366 374 389 384 406 423 374 367 375 285 273 255 249 245 230 232 233 202 113 92 130 173 182 179 98 150 131 155 178